Location: Peebles
(55.6412°N, 3.1714°W)
Time: 03:16:21
(UTC+01:00)

Envisat - Pass Details

Date: 17 August 2022
Orbit: 763 x 765 km, 98.2° (Epoch: 30 September)

Event Time Altitude Azimuth Distance (km) Brightness Sun altitude
Rises 04:09:49 0° 26° (NNE) 3,247 7.9 -12.0°
Reaches altitude 10° 04:13:16 10° 50° (NE) 2,314 7.0 -11.7°
Maximum altitude 04:16:01 14° 83° (E) 2,013 5.9 -11.4°
Drops below altitude 10° 04:18:45 10° 116° (ESE) 2,304 5.7 -11.1°
Sets 04:22:09 0° 141° (SE) 3,223 6.2 -10.8°
